Weather in Kuryayevo

Russia / Tver Oblast     57°02′59″N   33°05′34″E
temp.,
°C
wind,
m/s
gust,
m/s
humid.,
%
clouds,
%
prec.,
mm/h
press.,
hPa
HPBL,
m
8 may, sat
sat800:00+5se2787100 0.0 1006182
03:00+6sse51193100 0.6 10051121
06:00+6s51194100 0.7 10041152
09:00+6wsw369084 1.5 1005522
12:00+5wnw3692100 0.3 1006500
15:00+8nw4568100 0.3 10061228
18:00+8wnw375468 0.1 10071549
21:00+4nw41072100 0.1 1009702
9 may, sun
sun900:00+2nw41184100 0.0 1009554
03:00+2nw51188100 0.0 1011802
06:00+2nw4118563 0.0 1014678
09:00+6nw58604 0.0 1015813
12:00+10nw584179 0.0 10172211
15:00+11nw68325 0.0 10182283
18:00+10nw47395 0.0 10202076
21:00+4nnw116264 0.0 102310
10 may, mon
mon1000:00+3ssw22685 0.0 102515
03:00+2ssw227930 0.0 102635
06:00+3s287669 0.0 1027170
09:00+10ssw4948100 0.0 1027693
12:00+10ssw495591 0.0 1028688
15:00+15sw46455 0.0 10271111
18:00+16ssw355271 0.0 10261136
21:00+9s247910 0.0 102846
11 may, tue
tue1100:00+7s248919 0.0 102968
03:00+6s23947 0.0 103040
06:00+7sse248950 0.0 103092
09:00+14sse365676 0.0 1030562
12:00+18sse454417 0.0 10291177
15:00+19se35425 0.0 10281325
18:00+18se354987 0.0 10271154
21:00+11se267419 0.0 1028101
12 may, wed
wed1200:00+8se278067 0.0 1028125
03:00+7ese238359 0.0 102852
06:00+8e24825 0.0 1028115
09:00+15e36550 0.0 1026504
12:00+19e56410 0.0 10241065
15:00+21e58450 0.0 10231616
18:00+17ese612746 0.8 10221267
21:00+13sse499112 0.9 1023494